Observations for Trim Patrick St
| Time | AQI | Temp °C | Hum % | Pres Pa | CO μg/m³ | H₂S μg/m³ | NO μg/m³ | NO₂ μg/m³ | O₃ μg/m³ | SO₂ μg/m³ | PM1 μg/m³ | PM2.5 μg/m³ | PM10 μg/m³ |
|---|---|---|---|---|---|---|---|---|---|---|---|---|---|
| Monday 3 August 2026 | |||||||||||||
| 08:24 | 2 | 19.8 | 70 | 38,460 | 0.13 | 0 | 1.44 | 12.59 | 40.67 | 0 | 5.43 | 10.94 | 12.04 |
| 08:22 | 2 | 19.8 | 70 | 38,460 | 0.14 | 0 | 2.12 | 14.08 | 43.87 | 0.46 | 5.43 | 9.46 | 10.4 |
| 08:21 | 2 | 19.8 | 70 | 38,460 | 0.14 | 0 | 2.56 | 13.51 | 42.7 | 0 | 4.57 | 8.76 | 9.63 |
| 08:20 | 2 | 19.7 | 70 | 38,460 | 0.14 | 0 | 2.17 | 15.41 | 44.45 | 0.28 | 5.43 | 9.46 | 10.4 |
| 08:19 | 2 | 19.7 | 70 | 38,460 | 0.15 | 0 | 2.31 | 14.73 | 44.31 | 0.36 | 4.57 | 9.48 | 10.43 |
| 08:18 | 2 | 19.7 | 70 | 38,460 | 0.15 | 0 | 1.88 | 11.35 | 43.2 | 0.09 | 6.29 | 9.5 | 10.45 |
| 08:17 | 2 | 19.6 | 70 | 38,460 | 0.16 | 0 | 1.66 | 14.42 | 43.65 | 0 | 4.57 | 10.19 | 11.21 |
| 08:14 | 2 | 19.5 | 70 | 38,460 | 0.16 | 0 | 2.05 | 12.47 | 43.82 | 0.41 | 4.57 | 8.76 | 9.63 |
| 08:10 | 2 | 19.3 | 70 | 38,460 | 0.16 | 0 | 2.3 | 9.57 | 48.5 | 0 | 4.57 | 8.01 | 8.82 |
| 08:09 | 2 | 19.2 | 70 | 38,460 | 0.16 | 0 | 2.05 | 14.56 | 41.77 | 0 | 8 | 11.6 | 12.76 |
| 08:08 | 2 | 19.2 | 71 | 38,460 | 0.17 | 0 | 2.05 | 18.06 | 50.2 | 0 | 4.57 | 8.67 | 9.54 |
| 08:07 | 2 | 19.1 | 71 | 38,460 | 0.18 | 0 | 2.22 | 15.27 | 41.29 | 0 | 5.43 | 9.43 | 10.37 |
| 08:06 | 2 | 19.1 | 71 | 38,460 | 0.18 | 0 | 2.08 | 13.3 | 41.6 | 0 | 7.14 | 10.86 | 11.94 |
| 08:05 | 2 | 19 | 71 | 38,460 | 0.18 | 0 | 1.72 | 14.13 | 40.82 | 0 | 4.57 | 8.66 | 9.53 |
| 08:04 | 2 | 19 | 72 | 38,460 | 0.16 | 0 | 1.68 | 15.69 | 49.83 | 0 | 5.43 | 9.34 | 10.28 |
| 08:03 | 2 | 18.9 | 71 | 38,460 | 0.17 | 0 | 1.99 | 13.91 | 44.39 | 0 | 5.43 | 10.11 | 11.12 |
| 08:02 | 2 | 18.8 | 71 | 38,460 | 0.17 | 0 | 1.79 | 16.39 | 43.64 | 0 | 5.43 | 10.09 | 11.1 |
| 08:01 | 2 | 18.8 | 71 | 38,460 | 0.16 | 0 | 1.81 | 18.17 | 46.59 | 0 | 4.57 | 9.37 | 10.31 |
| 08:00 | 2 | 18.7 | 72 | 38,460 | 0.17 | 0 | 1.81 | 13.09 | 45.46 | 0 | 3.71 | 7.93 | 8.72 |
| 07:59 | 2 | 18.7 | 72 | 38,460 | 0.17 | 0 | 2.06 | 12.19 | 47.75 | 0 | 4.57 | 9.36 | 10.29 |